GEFSNGP_con_prob3kmehi_138.txt.gz
EHI
0 0 0 0 0 0 0 0 1 0 0 1 2 2 2 3 7 11 11 12 18 24 26 25 22 17 13 11 9 8 8 8 7 4 4 4 4 5 6 6 6 5 4 4
0 0 0 0 0 0 0 0 1 0 1 2 3 3 3 4 6 10 12 13 18 24 26 27 26 21 16 12 9 8 8 9 8 5 3 4 5 7 9 10 9 9 7 6
0 0 0 0 0 0 0 0 0 0 1 3 3 3 5 6 8 11 13 12 15 19 24 26 27 24 19 14 13 11 9 10 9 6 4 4 6 11 15 15 14 13 12 11
0 0 0 0 0 0 0 0 0 0 1 3 4 3 5 8 11 14 14 10 9 11 16 20 22 22 21 20 21 18 15 14 14 12 8 7 9 14 19 20 16 14 14 14
0 0 0 0 0 0 0 0 0 1 2 3 4 2 4 8 12 15 15 12 9 8 11 15 18 19 21 24 26 24 22 22 23 21 17 15 17 21 25 25 20 16 16 16
0 0 0 0 0 0 0 0 0 1 2 3 4 4 4 8 10 13 15 15 15 14 15 18 19 21 23 24 25 25 26 27 27 26 25 26 29 32 32 30 26 21 17 16
0 0 0 0 0 0 0 0 0 1 2 3 4 5 5 6 7 9 11 13 14 16 18 21 23 26 27 26 25 25 25 26 25 24 25 27 33 36 33 29 25 21 17 16
0 0 0 0 0 0 0 0 0 0 1 2 4 4 4 4 4 5 5 6 8 10 13 17 23 27 28 27 27 26 24 22 21 21 19 20 26 30 28 24 21 18 17 17
0 0 0 0 0 0 0 0 0 0 0 0 1 2 3 3 3 2 1 2 4 5 8 11 16 21 24 24 25 25 23 21 21 21 19 18 20 21 21 19 16 14 14 14
0 0 0 0 0 0 0 0 0 0 0 0 0 1 2 2 1 1 1 1 1 3 4 6 10 15 19 22 23 24 22 21 22 23 22 20 17 15 15 14 11 9 9 9
0 0 0 0 0 0 0 0 0 0 0 0 0 0 1 1 0 0 1 0 1 2 2 3 5 9 13 18 21 22 21 21 20 20 20 19 14 10 9 8 6 5 5 5
0 0 0 0 0 0 0 0 0 0 1 0 0 0 0 0 0 0 0 0 1 2 1 1 2 4 8 12 15 17 17 17 15 14 14 13 10 6 4 3 2 2 2 2
0 0 0 0 0 0 0 0 0 0 0 0 0 0 0 0 0 0 0 0 0 1 1 0 1 3 6 9 11 12 13 12 11 9 7 6 5 3 1 0 0 0 0 0
0 0 0 0 0 0 0 0 0 0 0 0 0 0 0 0 0 0 0 0 0 0 1 1 1 3 5 8 9 10 10 9 8 5 3 3 2 1 1 0 0 0 0 0
0 0 0 0 0 0 0 0 0 0 0 0 0 0 0 0 0 0 0 0 0 0 1 2 1 1 3 5 7 8 7 6 5 3 2 1 1 0 0 0 0 0 0 0
0 0 0 0 0 0 0 0 0 0 0 0 0 0 0 0 0 0 0 0 0 0 1 2 2 1 1 2 3 4 3 2 2 2 1 0 0 0 0 0 0 0 0 0
0 0 0 0 0 0 0 0 0 0 0 0 0 0 0 0 0 0 0 0 0 0 0 1 1 1 1 1 1 1 1 0 0 0 0 0 0 0 0 0 0 0 0 0
0 0 0 0 0 0 0 0 0 0 0 0 0 0 0 0 0 0 0 0 0 0 0 0 0 0 0 1 1 0 0 0 0 0 0 0 0 0 0 0 0 0 0 0
0 0 0 1 1 0 0 0 0 0 0 0 0 0 0 0 0 0 0 0 0 0 0 0 0 0 0 0 0 0 0 0 0 0 0 0 0 0 0 0 0 0 0 0
0 0 0 1 1 0 0 0 0 0 0 0 0 0 0 0 0 0 0 0 0 0 0 0 0 0 0 0 0 0 0 0 0 0 0 0 0 0 0 0 0 0 0 0
0 0 0 0 0 0 0 0 0 0 0 0 0 0 0 0 0 0 0 0 0 0 0 0 0 0 0 0 0 0 0 0 0 0 0 0 0 0 0 0 0 0 0 0
0 0 0 0 0 0 0 0 0 0 0 0 0 0 0 0 0 0 0 0 0 0 0 0 0 0 0 0 0 0 0 0 0 0 0 0 0 0 0 0 0 0 0 0
0 0 0 0 0 0 0 0 0 0 0 0 0 0 0 0 0 0 0 0 0 0 0 0 0 0 0 0 0 0 0 0 0 0 0 0 0 0 0 0 0 0 0 0
0 0 0 0 0 0 0 0 0 0 0 0 0 0 0 0 0 0 0 0 0 0 0 0 0 0 0 0 0 0 0 0 0 0 0 0 0 0 0 0 0 0 0 0
0 0 0 0 0 0 0 0 0 0 0 0 0 0 0 0 0 0 0 0 0 0 0 0 0 0 0 0 0 0 0 0 0 0 0 0 0 0 0 0 0 0 0 0
0 0 0 0 0 0 0 0 0 0 0 0 0 0 0 0 0 0 0 0 0 0 0 0 0 0 0 0 0 0 0 0 0 0 0 0 0 0 0 0 0 0 0 0
0 0 0 0 0 0 0 0 0 0 0 0 0 0 0 0 0 0 0 0 0 0 0 0 0 0 0 0 0 0 0 0 0 0 0 0 0 0 0 0 0 0 0 0

GEFSNGP_con_prob3kmehi_144.txt.gz
EHI
0 0 0 0 0 0 0 0 0 1 6 12 15 13 11 9 12 20 28 35 48 61 70 67 55 46 39 35 36 35 29 24 21 19 17 15 15 18 23 23 19 17 14 9
0 0 0 0 0 0 0 0 1 2 8 16 20 17 14 12 14 23 29 34 44 59 67 66 58 49 44 41 42 41 35 27 24 23 20 16 15 19 25 26 25 22 17 13
0 0 0 0 0 0 1 1 2 6 12 19 22 21 19 17 19 25 31 35 42 53 61 62 58 54 50 47 47 47 40 31 27 27 25 20 17 22 29 32 31 29 24 20
0 0 0 0 1 1 3 4 7 12 16 18 19 20 21 23 24 30 37 41 43 48 54 58 57 56 53 50 48 47 41 34 30 30 30 27 26 32 40 42 40 37 32 28
0 0 0 0 1 3 6 9 12 16 18 16 16 17 21 25 28 34 41 44 43 43 48 53 55 57 56 53 49 44 39 36 36 36 36 35 37 43 50 52 49 43 37 32
0 0 0 0 1 3 7 11 16 19 19 19 18 18 20 23 26 31 37 40 39 39 44 49 54 59 59 58 55 47 41 41 44 45 44 42 43 47 50 50 46 39 32 29
0 0 0 1 2 4 9 14 18 20 20 22 23 20 19 20 22 23 27 31 33 35 39 45 52 57 58 59 58 52 47 48 50 50 46 43 44 44 41 38 34 28 24 23
1 1 2 2 3 6 12 16 16 15 16 18 19 19 19 21 22 20 21 23 25 28 32 37 43 48 50 50 51 48 45 45 45 44 39 35 37 37 33 29 25 22 20 20
3 4 5 5 4 6 9 11 11 11 10 10 13 18 21 22 21 18 17 17 18 20 23 25 29 34 38 39 39 37 34 34 33 31 29 26 26 27 26 23 21 19 18 18
4 5 7 7 5 4 5 6 8 10 10 9 11 14 16 16 14 12 12 12 12 13 14 16 19 23 27 29 30 28 26 25 23 22 21 19 18 18 18 17 15 14 14 14
5 4 5 5 4 2 3 6 8 10 10 9 8 7 7 7 7 6 6 6 6 6 6 8 10 13 16 19 21 21 20 19 18 17 15 14 13 11 10 10 9 8 9 9
5 4 3 3 2 2 4 6 8 9 7 5 3 2 2 2 3 2 2 2 1 1 1 2 3 6 8 11 14 16 16 15 16 15 13 11 9 6 4 3 3 3 3 3
5 4 2 2 2 2 4 4 4 4 3 1 1 1 0 1 2 1 0 0 0 0 0 0 0 1 3 6 9 12 13 13 13 13 12 9 7 4 1 0 0 0 0 0
3 2 1 1 1 1 2 2 1 1 1 0 0 0 0 0 0 0 0 0 0 0 0 0 0 0 1 3 5 7 9 10 10 10 10 8 5 2 1 0 0 0 0 0
1 1 1 1 1 1 1 1 0 0 0 0 0 0 0 0 0 0 0 0 0 0 0 0 0 0 1 2 3 5 6 7 7 7 7 5 2 1 0 0 0 0 0 0
0 0 0 0 1 2 2 1 0 0 0 0 0 0 0 0 0 0 0 0 0 0 0 0 0 0 1 2 3 4 5 5 5 5 4 3 1 0 0 0 0 0 0 0
0 0 0 0 1 2 1 0 0 0 0 0 0 0 0 0 0 0 0 0 0 0 0 0 0 0 0 1 1 2 3 3 2 2 2 2 1 0 0 0 0 0 0 0
0 0 0 0 1 1 0 0 0 0 0 0 0 0 0 0 0 0 0 0 0 0 0 0 0 0 0 0 0 1 1 1 0 0 1 1 1 0 0 0 0 0 1 1
0 0 0 0 0 0 0 0 0 0 0 0 0 0 0 0 0 0 0 0 0 0 0 0 0 0 0 0 0 0 0 0 0 0 0 0 0 0 0 0 0 0 0 0
1 1 2 1 0 0 0 0 0 0 0 0 0 0 0 0 0 0 0 0 0 0 0 0 0 0 0 0 0 0 0 0 0 0 0 0 0 0 0 0 0 0 0 0
3 4 4 2 1 0 0 0 0 0 0 0 0 0 0 0 0 0 0 0 0 0 0 0 0 0 0 0 0 0 0 0 0 0 0 0 0 0 0 0 0 0 0 0
6 6 6 4 2 0 0 0 0 0 0 0 0 0 0 0 0 0 0 0 0 0 0 0 0 0 0 0 0 0 0 0 0 0 0 0 0 0 0 0 0 0 0 0
6 5 5 3 1 0 0 0 0 0 0 0 0 0 0 0 0 0 0 0 0 0 0 0 0 0 0 0 0 0 0 0 0 0 0 0 0 0 0 0 0 0 0 0
3 3 2 1 0 0 0 0 0 0 0 0 0 0 0 0 0 0 0 0 0 0 0 0 0 0 0 0 0 0 0 0 0 0 0 0 0 0 0 0 0 0 0 0
1 1 0 0 0 0 0 0 0 0 0 0 0 0 0 0 0 0 0 0 0 0 0 0 0 0 0 0 0 0 0 0 0 0 0 0 0 0 0 0 0 0 0 0
0 0 0 0 0 0 0 0 0 0 0 0 0 0 0 0 0 0 0 0 0 0 0 0 0 0 0 0 0 0 0 0 0 0 0 0 0 0 0 0 0 0 0 0
0 0 0 0 0 0 0 0 0 0 0 0 0 0 0 0 0 0 0 0 0 0 0 0 0 0 0 0 0 0 0 0 0 0 0 0 0 0 0 0 0 0 0 0

GEFSNGP_con_prob3kmehi_150.txt.gz
EHI
0 0 0 0 0 0 0 0 0 1 1 1 2 3 5 6 8 11 11 12 13 11 8 8 9 8 6 5 4 3 4 5 4 3 1 0 0 0 0 0 0 0 0 0
0 0 0 0 1 1 1 1 2 2 2 3 5 8 8 8 10 11 12 13 12 9 8 8 9 8 6 4 2 2 3 4 4 2 1 0 0 0 0 0 0 0 0 0
0 0 0 0 2 4 5 6 7 7 7 8 11 13 11 9 11 13 13 14 12 9 7 7 9 8 5 3 2 2 3 3 3 2 0 0 0 0 0 0 0 0 0 0
0 0 0 0 1 4 7 9 10 11 12 13 14 14 12 10 12 13 13 15 15 12 8 7 8 8 6 5 5 5 4 3 2 1 0 0 0 1 0 0 0 0 1 1
0 0 0 1 1 2 4 6 10 12 13 13 12 12 12 11 12 13 13 16 18 15 11 8 7 9 10 8 8 7 5 4 3 2 1 1 1 1 0 0 1 1 2 2
0 0 0 1 1 1 2 4 8 10 10 7 7 8 10 11 12 12 11 13 15 14 11 8 7 11 12 10 8 7 6 5 4 3 2 2 2 1 1 1 1 2 2 2
0 0 0 1 1 2 3 4 6 7 6 4 3 5 8 10 11 10 9 9 10 10 9 8 8 11 12 10 8 7 6 6 5 4 3 3 3 3 2 2 2 1 1 1
0 0 0 0 1 2 4 4 4 4 4 3 3 5 8 9 9 7 7 7 7 7 8 8 8 8 8 7 6 5 5 6 6 5 4 3 3 3 3 3 2 1 1 0
0 0 0 0 1 1 2 3 3 3 3 3 3 4 5 6 7 7 6 6 4 4 5 5 4 3 3 3 4 3 4 5 4 4 3 3 3 4 3 3 3 3 2 1
0 1 1 1 1 1 1 2 3 3 2 3 2 1 1 3 4 4 4 2 1 1 1 1 1 1 1 1 2 2 3 3 3 3 4 4 4 4 4 3 3 3 3 3
1 2 2 2 2 1 1 2 2 2 1 1 1 1 0 1 1 1 1 0 0 0 0 0 0 0 0 0 1 1 2 3 3 4 5 5 4 3 3 2 2 2 3 3
1 1 1 1 1 2 2 2 1 0 0 0 0 0 0 0 0 0 0 0 0 0 0 0 0 0 0 0 0 0 1 2 3 4 5 5 3 2 1 1 1 1 1 2
0 0 0 0 1 1 1 1 0 0 0 0 0 0 0 0 0 0 0 0 0 0 0 0 0 0 0 0 0 0 0 1 2 3 3 3 3 2 0 0 0 0 0 1
0 0 0 0 0 0 0 0 0 0 0 0 0 0 0 0 0 0 0 0 0 0 0 0 0 0 0 0 0 0 0 0 1 1 1 1 2 1 0 0 0 0 0 0
0 0 0 0 0 0 0 0 0 0 0 0 0 0 0 0 0 0 0 0 0 0 0 0 0 0 0 0 0 0 0 0 0 0 0 0 0 0 0 0 0 0 0 0
0 0 0 0 0 0 0 0 0 0 0 0 0 0 0 0 0 0 0 0 0 0 0 0 0 0 0 0 0 0 0 0 0 0 0 0 0 0 0 0 0 0 0 0
0 0 0 0 0 0 0 0 0 0 0 0 0 0 0 0 0 0 0 0 0 0 0 0 0 0 0 0 0 0 0 0 0 0 0 0 0 0 0 0 0 0 0 0
0 0 0 0 0 0 0 0 0 0 0 0 0 0 0 0 0 0 0 0 0 0 0 0 0 0 0 0 0 0 0 0 0 0 0 0 0 0 0 0 0 0 0 0
0 0 0 0 0 0 0 0 0 0 0 0 0 0 0 0 0 0 0 0 0 0 0 0 0 0 0 0 0 0 0 0 0 0 0 0 0 0 0 0 0 0 0 0
0 0 0 0 0 0 0 0 0 0 0 0 0 0 0 0 0 0 0 0 0 0 0 0 0 0 0 0 0 0 0 0 0 0 0 0 0 0 0 0 0 0 0 0
0 0 0 0 0 0 0 0 0 0 0 0 0 0 0 0 0 0 0 0 0 0 0 0 0 0 0 0 0 0 0 0 0 0 0 0 0 0 0 0 0 0 0 0
0 0 0 0 0 0 0 0 0 0 0 0 0 0 0 0 0 0 0 0 0 0 0 0 0 0 0 0 0 0 0 0 0 0 0 0 0 0 0 0 0 0 0 0
0 0 0 0 0 0 0 0 0 0 0 0 0 0 0 0 0 0 0 0 0 0 0 0 0 0 0 0 0 0 0 0 0 0 0 0 0 0 0 0 0 0 0 0
0 0 0 0 0 0 0 0 0 0 0 0 0 0 0 0 0 0 0 0 0 0 0 0 0 0 0 0 0 0 0 0 0 0 0 0 0 0 0 0 0 0 0 0
0 0 0 0 0 0 0 0 0 0 0 0 0 0 0 0 0 0 0 0 0 0 0 0 0 0 0 0 0 0 0 0 0 0 0 0 0 0 0 0 0 0 0 0
0 0 0 0 0 0 0 0 0 0 0 0 0 0 0 0 0 0 0 0 0 0 0 0 0 0 0 0 0 0 0 0 0 0 0 0 0 0 0 0 0 0 0 0
0 0 0 0 0 0 0 0 0 0 0 0 0 0 0 0 0 0 0 0 0 0 0 0 0 0 0 0 0 0 0 0 0 0 0 0 0 0 0 0 0 0 0 0

GEFSNGP_con_prob3kmehi_156.txt.gz
EHI
0 0 0 0 1 0 0 0 0 0 1 0 0 0 0 0 0 0 0 0 0 0 0 1 2 4 3 2 1 0 1 2 3 2 1 0 0 0 0 0 0 0 0 0
0 0 0 0 1 0 0 0 0 1 1 1 0 0 1 1 0 0 0 0 0 0 0 0 2 3 3 1 0 0 0 1 2 1 0 0 0 0 0 0 0 0 0 0
0 0 0 0 0 0 0 0 0 1 1 1 1 2 3 2 0 0 0 0 0 0 0 1 2 2 2 1 0 0 0 0 0 0 0 0 0 0 0 0 0 0 0 0
0 0 0 0 0 0 0 0 1 2 2 2 3 5 5 2 0 0 0 0 0 0 0 1 1 1 1 0 0 0 0 0 0 0 0 0 0 0 0 0 0 0 0 0
0 0 0 0 0 0 0 0 1 2 2 3 4 5 5 3 1 0 0 1 1 1 0 0 0 1 1 0 0 0 0 0 0 0 0 0 0 0 0 0 0 0 0 0
0 0 0 0 0 0 0 0 0 2 2 2 2 3 3 3 2 1 1 1 2 1 0 0 0 0 0 0 0 0 0 0 0 0 0 0 0 0 0 0 0 0 0 0
0 0 0 0 0 0 0 0 2 3 3 2 2 2 3 3 3 3 1 1 1 0 0 0 0 0 0 0 0 0 0 0 0 0 0 0 0 0 0 0 0 0 0 0
0 0 0 0 0 1 1 1 4 5 4 3 4 3 2 2 3 3 2 0 0 0 0 0 0 0 0 0 0 0 0 0 0 0 0 0 0 0 0 0 0 0 0 0
0 0 0 0 0 1 1 2 4 4 3 3 3 2 1 1 1 1 1 0 0 0 0 0 0 0 0 0 0 0 0 0 0 0 0 0 0 1 1 1 1 1 1 0
0 0 0 0 0 0 1 2 2 2 1 1 1 0 0 0 0 0 0 0 0 0 0 0 0 0 0 0 0 0 0 0 0 0 0 1 1 2 2 2 2 2 2 1
0 0 0 0 0 0 1 1 1 0 0 0 0 0 0 0 0 0 0 0 0 0 0 0 0 0 0 0 0 0 0 0 0 0 0 1 2 3 3 2 2 2 2 2
0 0 0 0 0 0 0 0 0 0 0 0 0 0 0 0 0 0 0 0 0 0 0 0 0 0 0 0 0 0 0 0 0 0 0 1 3 3 1 1 1 1 1 1
0 0 0 0 0 0 0 0 0 0 0 0 0 0 0 0 0 0 0 0 0 0 0 0 0 0 0 0 0 0 0 0 0 0 0 1 2 2 1 0 0 0 0 0
0 0 0 0 1 0 0 0 0 0 0 0 0 0 0 0 0 0 0 0 0 0 0 0 0 0 0 0 0 0 0 0 0 0 0 0 1 1 1 0 0 0 0 0
0 0 0 0 0 0 0 0 0 0 0 0 0 0 0 0 0 0 0 0 0 0 0 0 0 0 0 0 0 0 0 0 0 0 0 0 0 0 0 0 0 0 0 0
0 0 0 0 0 0 0 0 0 0 0 0 0 0 0 0 0 0 0 0 0 0 0 0 0 0 0 0 0 0 0 0 0 0 0 0 0 0 0 0 0 0 0 0
0 0 0 0 0 0 0 0 0 0 0 0 0 0 0 0 0 0 0 0 0 0 0 0 0 0 0 0 0 0 0 0 0 0 0 0 0 0 0 0 0 0 0 0
0 0 0 0 0 0 0 0 0 0 0 0 0 0 0 0 0 0 0 0 0 0 0 0 0 0 0 0 0 0 0 0 0 0 0 0 0 0 0 0 0 0 0 0
0 0 0 0 0 0 0 0 0 0 0 0 0 0 0 0 0 0 0 0 0 0 0 0 0 0 0 0 0 0 0 0 0 0 0 0 0 0 0 0 0 0 0 0
0 0 0 0 0 0 0 0 0 0 0 0 0 0 0 0 0 0 0 0 0 0 0 0 0 0 0 0 0 0 0 0 0 0 0 0 0 0 0 0 0 0 0 0
0 0 0 0 0 0 0 0 0 0 0 0 0 0 0 0 0 0 0 0 0 0 0 0 0 0 0 0 0 0 0 0 0 0 0 0 0 0 0 0 0 0 0 0
0 0 0 0 0 0 0 0 0 0 0 0 0 0 0 0 0 0 0 0 0 0 0 0 0 0 0 0 0 0 0 0 0 0 0 0 0 0 0 0 0 0 0 0
0 0 0 0 0 0 0 0 0 0 0 0 0 0 0 0 0 0 0 0 0 0 0 0 0 0 0 0 0 0 0 0 0 0 0 0 0 0 0 0 0 0 0 0
0 0 0 0 0 0 0 0 0 0 0 0 0 0 0 0 0 0 0 0 0 0 0 0 0 0 0 0 0 0 0 0 0 0 0 0 0 0 0 0 0 0 0 0
0 0 0 0 0 0 0 0 0 0 0 0 0 0 0 0 0 0 0 0 0 0 0 0 0 0 0 0 0 0 0 0 0 0 0 0 0 0 0 0 0 0 0 0
0 0 0 0 0 0 0 0 0 0 0 0 0 0 0 0 0 0 0 0 0 0 0 0 0 0 0 0 0 0 0 0 0 0 0 0 0 0 0 0 0 0 0 0
0 0 0 0 0 0 0 0 0 0 0 0 0 0 0 0 0 0 0 0 0 0 0 0 0 0 0 0 0 0 0 0 0 0 0 0 0 0 0 0 0 0 0 0

GEFSNGP_con_prob3kmehi_162.txt.gz
EHI
0 0 0 0 0 0 0 0 0 0 2 5 10 14 17 19 18 16 17 17 18 22 24 23 22 21 20 21 22 21 16 12 11 9 6 4 4 4 4 4 4 4 5 6
0 0 0 0 0 0 0 0 0 0 3 9 13 15 18 20 18 17 18 18 16 17 19 20 20 20 20 20 20 19 15 12 12 10 6 4 4 5 5 6 6 6 6 6
0 0 0 0 0 0 0 1 1 2 7 14 16 15 18 19 17 16 18 18 14 13 14 16 18 20 20 19 18 16 13 12 12 10 6 3 4 5 5 6 8 7 6 6
0 0 0 0 0 0 1 2 2 5 10 14 15 15 15 15 14 13 15 16 15 14 14 17 19 21 21 19 17 15 12 11 11 9 5 3 4 5 5 6 7 5 4 4
0 0 0 0 0 0 1 2 3 6 11 13 13 12 11 12 11 11 12 14 14 14 15 18 22 24 23 21 19 15 11 9 8 7 4 3 4 5 6 6 6 3 2 2
0 0 0 0 0 0 2 3 3 6 10 12 12 12 12 11 10 10 11 12 13 13 13 15 19 21 21 20 19 16 11 7 6 5 5 5 5 6 6 8 7 5 2 2
0 0 0 0 1 3 4 6 6 7 11 14 16 17 15 13 11 12 13 12 12 11 11 11 13 15 15 15 15 13 10 7 5 6 6 6 6 7 8 9 9 7 4 2
0 0 0 2 4 7 10 12 11 9 12 16 18 18 16 14 14 15 15 13 11 11 11 12 13 11 9 8 9 9 8 6 4 4 4 4 4 6 9 9 8 6 4 2
0 1 1 3 6 8 11 13 11 8 10 13 14 13 12 11 13 15 15 14 11 10 11 12 13 11 8 6 7 7 6 4 2 1 1 1 2 4 7 7 6 4 4 4
2 2 2 2 3 6 7 8 8 7 8 9 10 9 8 9 11 13 14 13 12 10 9 9 9 9 7 6 6 6 4 3 1 0 0 0 1 3 4 4 4 4 5 5
4 3 2 1 1 4 6 6 6 6 6 6 7 7 8 8 10 12 13 12 11 8 6 5 5 5 5 5 5 3 2 1 0 0 0 0 1 2 3 3 2 3 3 3
4 4 3 2 1 3 6 6 6 5 4 4 5 7 7 7 9 10 10 9 7 5 4 4 3 3 3 4 3 2 1 1 1 1 0 0 1 2 2 1 1 1 1 1
3 3 3 2 1 2 4 5 4 3 3 2 3 4 4 4 5 5 5 4 3 3 3 3 3 3 3 3 3 3 2 2 2 2 1 1 2 3 2 1 0 0 0 0
1 1 1 1 1 1 1 2 2 1 1 1 1 1 1 1 1 1 1 1 1 1 1 2 3 3 3 3 3 3 3 3 3 3 3 3 3 3 3 2 1 0 0 0
0 0 0 1 1 1 0 0 0 0 0 0 0 0 0 0 0 0 0 0 0 0 0 1 2 2 2 2 2 2 3 3 3 3 3 3 3 3 3 2 1 0 0 0
0 0 0 0 0 0 0 0 0 0 0 0 0 0 0 0 0 0 0 0 0 0 0 0 1 1 1 1 1 1 1 2 2 2 2 2 2 2 1 1 0 0 0 0
0 0 0 0 0 0 0 0 0 0 0 0 0 0 0 0 0 0 0 0 0 0 0 0 0 0 0 0 0 0 0 1 1 1 1 1 1 1 0 0 0 0 0 0
0 0 0 0 0 0 0 0 0 0 0 0 0 0 0 0 0 0 0 0 0 0 0 0 0 0 0 0 0 0 0 0 0 0 0 0 0 0 0 0 0 0 0 0
0 0 0 0 0 0 0 0 0 0 0 0 0 0 0 0 0 0 0 0 0 0 0 0 0 0 0 0 0 0 0 0 0 0 0 0 0 0 0 0 0 0 0 0
0 0 0 0 0 0 0 0 0 0 0 0 0 0 0 0 0 0 0 0 0 0 0 0 0 0 0 0 0 0 0 0 0 0 0 0 0 0 0 0 0 0 0 0
0 0 0 0 0 0 0 0 0 0 0 0 0 0 0 0 0 0 0 0 0 0 0 0 0 0 0 0 0 0 0 0 0 0 0 0 0 0 0 0 0 0 0 0
0 0 0 0 0 0 0 0 0 0 0 0 0 0 0 0 0 0 0 0 0 0 0 0 0 0 0 0 0 0 0 0 0 0 0 0 0 0 0 0 0 0 0 0
0 0 0 0 0 0 0 0 0 0 0 0 0 0 0 0 0 0 0 0 0 0 0 0 0 0 0 0 0 0 0 0 0 0 0 0 0 0 0 0 0 0 0 0
0 0 0 0 0 0 0 0 0 0 0 0 0 0 0 0 0 0 0 0 0 0 0 0 0 0 0 0 0 0 0 0 0 0 0 0 0 0 0 0 0 0 0 0
0 0 0 0 0 0 0 0 0 0 0 0 0 0 0 0 0 0 0 0 0 0 0 0 0 0 0 0 0 0 0 0 0 0 0 0 0 0 0 0 0 0 0 0
0 0 0 0 0 0 0 0 0 0 0 0 0 0 0 0 0 0 0 0 0 0 0 0 0 0 0 0 0 0 0 0 0 0 0 0 0 0 0 0 0 0 0 0
0 0 0 0 0 0 0 0 0 0 0 0 0 0 0 0 0 0 0 0 0 0 0 0 0 0 0 0 0 0 0 0 0 0 0 0 0 0 0 0 0 0 0 0

GEFSNGP_con_prob3kmehi_168.txt.gz
EHI
0 0 0 0 0 0 0 0 0 2 7 16 25 31 34 37 41 45 48 46 42 37 34 32 31 30 29 30 32 34 36 36 35 32 28 25 24 24 22 16 11 9 8 7
0 0 0 0 0 0 0 0 1 4 11 20 29 34 37 39 44 48 48 45 41 36 33 31 30 28 28 30 32 34 34 34 33 31 27 21 19 21 20 15 12 10 9 7
0 0 0 0 0 0 1 1 2 8 18 29 37 42 44 46 51 53 50 46 42 37 34 32 30 27 25 27 30 32 31 29 27 25 22 18 16 18 17 14 11 9 9 8
0 0 0 0 0 1 2 4 8 15 26 35 41 46 49 53 57 55 51 49 46 40 35 34 31 26 24 25 26 26 26 24 21 17 16 16 17 17 16 13 9 7 8 9
0 0 0 0 1 3 6 11 18 25 32 35 37 40 46 52 53 49 47 47 44 38 34 33 31 29 28 27 25 23 22 21 18 15 14 15 16 15 14 12 8 6 6 7
0 0 0 2 5 8 12 19 28 33 33 31 32 37 44 48 45 41 39 38 34 31 31 30 31 32 31 28 24 21 19 19 18 16 14 14 14 13 12 9 7 4 3 3
0 0 1 5 11 16 21 29 36 39 36 32 35 41 45 44 38 33 30 27 25 25 26 27 28 29 28 24 21 19 17 16 15 14 13 12 13 12 9 6 3 1 1 1
1 2 6 12 19 27 33 38 41 42 40 37 38 40 39 36 31 25 22 22 23 24 24 24 25 24 21 17 13 13 13 11 9 9 8 8 9 8 5 2 1 0 0 0
4 7 13 20 25 32 35 36 37 36 34 32 31 30 27 25 23 20 19 20 21 22 21 21 20 17 14 10 7 7 8 8 6 6 5 5 5 3 1 0 0 1 1 0
8 11 16 20 24 27 28 27 26 24 22 20 20 20 19 18 19 19 19 18 18 18 18 17 14 11 8 7 5 5 6 5 4 4 3 3 2 1 0 0 0 1 1 1
9 11 13 15 20 24 24 21 18 15 15 15 15 15 14 15 17 18 17 16 16 18 17 14 10 7 6 7 6 6 5 4 3 2 1 1 0 0 0 0 0 1 1 0
10 9 10 12 17 20 20 18 16 16 15 15 14 11 10 12 16 16 15 16 18 17 14 10 7 5 5 7 6 5 4 2 1 1 0 0 0 0 0 0 0 0 0 0
11 11 11 11 11 12 11 12 13 15 16 16 14 10 8 10 13 13 12 14 15 13 9 6 3 3 5 6 5 4 2 1 0 0 0 0 0 0 1 1 0 0 0 0
12 12 12 11 8 6 6 7 8 10 12 12 11 9 7 7 9 9 8 9 9 8 5 2 1 1 3 3 4 3 2 1 1 0 1 1 1 1 2 2 1 0 0 0
11 11 10 9 7 5 5 6 6 7 7 7 6 6 6 6 6 6 6 5 4 3 3 2 0 0 1 1 2 2 2 2 2 2 2 2 2 2 2 2 1 0 0 0
8 7 7 6 4 3 3 4 5 5 4 4 3 4 5 5 5 4 4 4 2 1 1 1 0 0 0 0 1 1 1 1 2 2 2 2 2 2 1 1 1 0 0 0
4 3 3 3 1 0 1 1 2 2 3 3 3 3 4 4 3 3 2 2 1 0 0 0 0 0 0 0 0 0 0 0 1 1 1 0 1 1 0 0 0 0 0 0
1 1 1 1 0 1 1 0 0 1 2 2 2 2 2 2 2 1 1 1 0 0 0 0 0 0 0 0 0 0 0 0 0 0 0 0 0 0 0 0 0 0 0 0
0 0 0 0 0 1 1 0 0 0 1 1 1 1 1 1 1 0 0 0 0 0 0 0 0 0 0 0 0 0 0 0 0 0 0 0 0 0 0 0 0 0 0 0
1 1 0 0 0 1 1 0 0 0 0 0 0 0 0 0 0 0 0 0 0 0 0 0 0 0 0 0 0 0 0 0 0 0 0 0 0 0 0 0 0 0 0 0
2 1 0 0 0 0 0 0 0 0 0 0 0 0 0 0 0 0 0 0 0 0 0 0 0 0 0 0 0 0 0 0 0 0 0 0 0 0 0 0 0 0 0 0
2 1 0 0 0 0 0 0 0 0 0 0 0 0 0 0 0 0 0 0 0 0 0 0 0 0 0 0 0 0 0 0 0 0 0 0 0 0 0 0 0 0 0 0
1 0 0 0 0 0 0 0 0 0 0 0 0 0 0 0 0 0 0 0 0 0 0 0 0 0 0 0 0 0 0 0 0 0 0 0 0 0 0 0 0 0 0 0
0 0 0 0 0 0 0 0 0 0 0 0 0 0 0 0 0 0 0 0 0 0 0 0 0 0 0 0 0 0 0 0 0 0 0 0 0 0 0 0 0 0 0 0
1 2 1 1 0 0 0 0 0 0 0 0 0 0 0 0 0 0 0 0 0 0 0 0 0 0 0 0 0 0 0 0 0 0 0 0 0 0 0 0 0 0 0 0
2 3 3 2 0 0 0 0 0 0 0 0 0 0 0 0 0 0 0 0 0 0 0 0 0 0 0 0 0 0 0 0 0 0 0 0 0 0 0 0 0 0 0 0
2 4 5 2 0 0 0 0 0 0 0 0 0 0 0 0 0 0 0 0 0 0 0 0 0 0 0 0 0 0 0 0 0 0 0 0 0 0 0 0 0 0 0 0

GEFSNGP_con_prob3kmehi_174.txt.gz
EHI
0 0 0 0 0 0 0 1 1 1 2 6 11 18 23 25 28 30 32 30 29 29 29 29 28 27 25 22 20 20 22 20 17 14 11 10 10 9 7 6 6 5 4 3
0 0 0 0 0 0 1 2 2 2 4 9 17 22 23 26 28 31 32 33 31 29 27 27 26 25 24 22 21 21 22 21 17 13 11 10 10 9 8 6 6 5 3 2
0 0 0 0 0 1 3 4 4 4 7 16 26 28 26 27 29 31 33 34 31 27 25 24 24 22 20 19 20 21 22 19 15 11 11 11 10 9 7 6 5 3 2 2
0 0 0 1 1 2 7 11 11 10 14 25 35 37 33 29 28 29 30 30 26 24 23 23 23 21 18 17 18 19 19 16 12 10 10 10 9 7 5 4 3 2 1 2
0 0 1 2 3 4 9 18 21 20 24 33 41 43 37 28 25 25 24 22 21 20 22 23 22 21 18 16 17 17 15 12 10 8 8 6 5 4 3 3 2 1 1 1
0 0 1 3 5 5 9 18 25 28 30 33 38 37 31 25 23 22 19 16 16 18 19 19 18 17 16 16 16 14 12 9 6 4 3 2 1 1 2 2 1 0 0 0
0 0 1 3 6 6 8 14 22 28 30 29 27 26 25 24 23 21 17 13 13 15 15 13 11 12 14 14 13 10 7 4 2 1 1 0 0 0 1 1 0 0 0 0
0 0 1 2 4 6 8 13 19 23 25 25 22 20 22 21 19 17 13 10 10 12 10 7 6 8 10 9 8 6 4 1 0 0 0 0 0 0 0 0 0 0 0 0
0 0 0 0 2 5 9 14 16 16 18 18 17 17 17 15 12 11 9 7 6 6 5 3 3 4 4 4 4 4 2 1 0 0 0 0 0 0 0 0 0 0 0 0
1 1 1 1 3 5 9 11 11 10 11 13 12 12 12 11 10 9 7 6 4 3 3 1 1 1 1 1 2 2 1 0 0 0 0 0 0 0 0 0 0 0 0 0
0 1 2 2 4 5 7 9 8 8 9 11 10 9 9 10 10 8 6 5 4 3 2 1 0 1 0 1 1 1 0 0 0 0 0 0 0 0 0 0 0 0 0 0
0 1 2 3 3 4 6 8 9 8 8 8 7 7 7 8 8 6 5 4 3 2 1 0 0 1 0 0 0 0 0 0 0 0 0 0 0 0 0 0 0 0 0 0
1 1 2 3 3 4 6 7 7 7 6 5 4 5 6 6 6 5 4 2 1 1 0 0 0 1 0 0 0 0 0 0 0 0 0 0 0 0 0 0 0 0 0 0
0 1 2 3 4 5 6 5 5 5 4 3 3 3 4 5 4 3 3 2 0 0 0 0 0 0 0 0 0 0 0 0 0 0 0 0 0 0 0 0 0 0 0 0
0 0 2 3 5 6 6 4 3 3 2 1 1 1 2 3 3 2 2 2 0 0 0 0 0 0 0 0 0 1 0 0 0 0 0 0 0 0 0 0 0 0 0 0
0 0 2 3 5 5 4 3 1 1 1 0 0 0 1 2 3 3 2 1 0 0 0 0 0 0 0 0 0 0 0 0 0 0 0 0 0 0 0 0 0 0 0 0
0 0 1 2 3 2 1 1 0 0 0 0 1 1 1 3 3 3 2 1 0 0 0 0 0 0 0 0 0 0 0 0 0 0 0 0 0 0 0 0 0 0 0 0
0 0 0 1 1 0 0 0 0 1 1 1 2 2 3 3 3 2 1 0 0 0 0 0 0 0 0 0 0 0 0 0 0 0 0 0 0 0 0 0 0 0 0 0
0 0 0 0 0 0 0 0 0 1 2 2 3 3 2 2 2 1 0 0 0 0 0 0 0 0 0 0 0 0 0 0 0 0 0 0 0 0 0 0 0 0 0 0
0 0 0 0 0 0 0 0 0 1 1 1 2 1 1 1 1 0 0 0 0 0 0 0 0 0 0 0 0 0 0 0 0 0 0 0 0 0 0 0 0 0 0 0
0 0 0 0 0 0 0 0 0 0 0 0 0 0 0 0 0 0 0 0 0 0 0 0 0 0 0 0 0 0 0 0 0 0 0 0 0 0 0 0 0 0 0 0
0 0 0 0 0 0 0 0 0 0 0 0 0 0 0 0 0 0 0 0 0 0 0 0 0 0 0 0 0 0 0 0 0 0 0 0 0 0 0 0 0 0 0 0
0 0 0 0 0 0 0 0 0 0 0 0 0 0 0 0 0 0 0 0 0 0 0 0 0 0 0 0 0 0 0 0 0 0 0 0 0 0 0 0 0 0 0 0
0 0 0 0 0 0 0 0 0 0 0 0 0 0 0 0 0 0 0 0 0 0 0 0 0 0 0 0 0 0 0 0 0 0 0 0 0 0 0 0 0 0 0 0
0 0 0 0 0 0 0 0 0 0 0 0 0 0 0 0 0 0 0 0 0 0 0 0 0 0 0 0 0 0 0 0 0 0 0 0 0 0 0 0 0 0 0 0
0 0 0 0 0 0 0 0 0 0 0 0 0 0 0 0 0 0 0 0 0 0 0 0 0 0 0 0 0 0 0 0 0 0 0 0 0 0 0 0 0 0 0 0
0 0 0 0 0 0 0 0 0 0 0 0 0 0 0 0 0 0 0 0 0 0 0 0 0 0 0 0 0 0 0 0 0 0 0 0 0 0 0 0 0 0 0 0

GEFSNGP_con_prob3kmehi_180.txt.gz
EHI
0 0 0 0 0 0 0 0 0 0 0 0 1 4 7 10 14 16 17 18 19 21 24 27 29 28 28 26 22 17 14 10 7 8 9 10 10 9 7 6 6 6 6 6
0 0 0 0 0 0 0 0 0 0 0 1 2 4 7 11 13 13 13 15 17 19 21 24 26 26 25 24 20 16 13 9 7 7 9 9 10 9 7 6 6 6 6 6
0 0 0 0 0 0 0 0 0 0 1 2 3 4 6 9 11 11 11 14 16 17 17 18 20 21 21 20 17 14 11 8 6 6 7 8 9 8 6 5 5 6 6 6
0 0 0 0 0 0 0 1 1 2 3 5 6 7 8 7 8 9 10 12 15 15 14 14 15 16 16 16 15 12 9 6 5 6 7 7 7 7 6 5 5 5 5 5
0 0 0 0 0 0 1 2 3 5 7 10 12 12 11 8 6 6 7 9 12 12 12 13 14 13 13 13 12 10 7 5 5 7 7 6 5 4 4 4 4 4 4 4
0 0 0 0 0 0 1 2 3 6 10 13 13 12 10 7 6 5 5 5 7 8 9 11 12 12 11 10 8 7 5 4 5 7 7 5 3 2 2 2 3 3 3 3
0 0 0 1 1 1 0 1 4 6 10 11 9 9 8 7 8 6 4 3 3 4 5 6 7 8 8 8 7 5 4 4 4 5 4 2 1 1 1 1 1 2 2 2
0 0 1 2 2 1 1 3 6 8 9 9 9 9 9 9 9 6 4 2 1 1 1 2 4 5 5 6 6 5 4 4 3 2 1 0 0 0 0 0 0 1 1 1
1 1 1 2 2 2 3 6 8 9 9 9 11 11 11 9 7 5 4 2 0 0 0 1 2 3 4 5 6 6 5 3 2 1 0 0 0 0 0 0 0 0 0 0
3 2 2 2 3 4 6 7 8 8 9 10 11 11 9 7 4 3 3 2 0 0 0 0 1 2 2 3 4 5 4 2 1 0 0 0 0 0 0 0 0 0 0 0
2 2 2 2 3 4 7 7 7 7 9 11 11 9 7 4 2 1 1 1 0 0 0 0 0 1 1 1 2 3 2 1 0 0 0 0 0 0 0 0 0 0 0 0
1 0 1 2 2 4 6 6 5 7 9 11 11 9 5 2 0 0 0 0 0 0 0 0 0 0 0 0 1 1 1 0 0 0 0 0 0 0 0 0 0 0 0 0
0 0 0 1 2 4 5 5 4 5 7 8 8 7 5 2 0 0 0 0 0 0 0 0 0 0 0 0 0 0 0 0 0 0 0 0 0 0 0 0 0 0 0 0
0 0 0 1 2 4 5 5 4 4 4 4 4 4 3 2 0 0 0 0 0 0 0 0 0 0 0 0 0 0 0 0 0 0 0 0 0 0 0 0 0 0 0 0
0 0 0 0 1 3 3 3 2 2 3 2 2 2 2 1 0 0 0 0 0 0 0 0 0 0 0 0 0 0 0 0 0 0 0 0 0 0 0 0 0 0 0 0
0 0 0 0 1 1 1 1 0 1 1 1 1 1 1 0 0 0 0 0 0 0 0 0 0 0 0 0 0 0 0 0 0 0 0 0 0 0 0 0 0 0 0 0
0 0 0 0 0 0 0 0 0 0 0 0 0 0 0 0 0 0 0 0 0 0 0 0 0 0 0 0 0 0 0 0 0 0 0 0 0 0 0 0 0 0 0 0
0 0 0 0 0 0 0 0 0 0 0 0 0 0 0 0 0 0 0 0 0 0 0 0 0 0 0 0 0 0 0 0 0 0 0 0 0 0 0 0 0 0 0 0
0 0 0 0 0 0 0 0 0 0 0 0 0 0 0 0 0 0 0 0 0 0 0 0 0 0 0 0 0 0 0 0 0 0 0 0 0 0 0 0 0 0 0 0
0 0 0 0 0 0 0 0 0 0 0 0 0 0 0 0 0 0 0 0 0 0 0 0 0 0 0 0 0 0 0 0 0 0 0 0 0 0 0 0 0 0 0 0
0 0 0 0 0 0 0 0 0 0 0 0 0 0 0 0 0 0 0 0 0 0 0 0 0 0 0 0 0 0 0 0 0 0 0 0 0 0 0 0 0 0 0 0
0 0 0 0 0 0 0 0 0 0 0 0 0 0 0 0 0 0 0 0 0 0 0 0 0 0 0 0 0 0 0 0 0 0 0 0 0 0 0 0 0 0 0 0
0 0 0 0 0 0 0 0 0 0 0 0 0 0 0 0 0 0 0 0 0 0 0 0 0 0 0 0 0 0 0 0 0 0 0 0 0 0 0 0 0 0 0 0
0 0 0 0 0 0 0 0 0 0 0 0 0 0 0 0 0 0 0 0 0 0 0 0 0 0 0 0 0 0 0 0 0 0 0 0 0 0 0 0 0 0 0 0
0 0 0 0 0 0 0 0 0 0 0 0 0 0 0 0 0 0 0 0 0 0 0 0 0 0 0 0 0 0 0 0 0 0 0 0 0 0 0 0 0 0 0 0
0 0 0 0 0 0 0 0 0 0 0 0 0 0 0 0 0 0 0 0 0 0 0 0 0 0 0 0 0 0 0 0 0 0 0 0 0 0 0 0 0 0 0 0
0 0 0 0 0 0 0 0 0 0 0 0 0 0 0 0 0 0 0 0 0 0 0 0 0 0 0 0 0 0 0 0 0 0 0 0 0 0 0 0 0 0 0 0